TimeCET,TemperatureF,Dew PointF,Humidity,Sea Level PressureIn,VisibilityMPH,Wind Direction,Wind SpeedMPH,Gust SpeedMPH,PrecipitationIn,Events,Conditions,WindDirDegrees,DateUTC
12:45 AM,30.2,24.8,80,30.30,-9999.0,SE,4.5,-,N/A,,Clear,130,2013-03-04 23:45:00
1:15 AM,30.2,24.8,80,30.30,-9999.0,SE,4.5,-,N/A,,Clear,130,2013-03-05 00:15:00
1:45 AM,32.0,26.6,80,30.30,-9999.0,SE,4.5,-,N/A,,Clear,130,2013-03-05 00:45:00
2:15 AM,30.2,26.6,86,30.30,-9999.0,SE,2.2,-,N/A,,Clear,140,2013-03-05 01:15:00
2:45 AM,30.2,26.6,86,30.30,-9999.0,SE,2.2,-,N/A,,Clear,140,2013-03-05 01:45:00
3:15 AM,30.2,26.6,86,30.30,-9999.0,South,4.5,-,N/A,,Clear,180,2013-03-05 02:15:00
3:45 AM,33.8,26.6,75,30.30,-9999.0,South,4.5,-,N/A,,Clear,170,2013-03-05 02:45:00
4:15 AM,33.8,26.6,75,30.30,-9999.0,South,6.7,-,N/A,,Clear,170,2013-03-05 03:15:00
4:45 AM,32.0,24.8,75,30.30,-9999.0,South,6.7,-,N/A,,Clear,170,2013-03-05 03:45:00
5:15 AM,32.0,24.8,75,30.27,-9999.0,SSE,6.7,-,N/A,,Clear,160,2013-03-05 04:15:00
5:45 AM,-9999,-9999,N/A,-9999,-9999.0,South,11.2,-,N/A,,Clear,170,2013-03-05 04:45:00
6:15 AM,35.6,24.8,65,30.27,-9999.0,SSE,8.9,-,N/A,,Clear,160,2013-03-05 05:15:00
6:45 AM,33.8,24.8,70,30.27,-9999.0,South,8.9,-,N/A,,Clear,170,2013-03-05 05:45:00
7:15 AM,35.6,24.8,65,30.27,-9999.0,SSE,8.9,-,N/A,,Clear,160,2013-03-05 06:15:00
7:45 AM,37.4,26.6,65,30.27,-9999.0,SSE,8.9,-,N/A,,Clear,160,2013-03-05 06:45:00
8:15 AM,41.0,26.6,57,30.27,-9999.0,SSE,11.2,-,N/A,,Clear,150,2013-03-05 07:15:00
8:45 AM,-9999,-9999,N/A,-9999,-9999.0,South,13.4,-,N/A,,Clear,170,2013-03-05 07:45:00
9:08 AM,44.6,24.8,46,30.27,-9999.0,SSE,15.7,26.8,N/A,,Clear,150,2013-03-05 08:08:00
9:15 AM,44.6,24.8,46,30.27,-9999.0,SSE,15.7,26.8,N/A,,Clear,160,2013-03-05 08:15:00
9:45 AM,46.4,24.8,43,30.27,-9999.0,SSE,15.7,26.8,N/A,,Clear,160,2013-03-05 08:45:00
10:45 AM,48.2,23.0,37,30.24,-9999.0,SSE,17.9,-,N/A,,Clear,160,2013-03-05 09:45:00
11:45 AM,-9999,-9999,N/A,-9999,-9999.0,South,13.4,-,N/A,,Clear,170,2013-03-05 10:45:00
12:15 PM,50.0,21.2,32,30.21,-9999.0,SE,15.7,26.8,N/A,,Clear,140,2013-03-05 11:15:00
12:45 PM,50.0,23.0,35,30.21,-9999.0,SE,15.7,26.8,N/A,,Clear,140,2013-03-05 11:45:00
1:15 PM,51.8,23.0,33,30.18,-9999.0,SSE,15.7,26.8,N/A,,Clear,150,2013-03-05 12:15:00
1:45 PM,51.8,21.2,30,30.18,-9999.0,SSE,15.7,-,N/A,,Clear,150,2013-03-05 12:45:00
2:15 PM,53.6,23.0,30,30.15,-9999.0,SE,15.7,-,N/A,,Clear,140,2013-03-05 13:15:00
2:45 PM,-9999,-9999,N/A,-9999,-9999.0,SSE,13.4,-,N/A,,Clear,160,2013-03-05 13:45:00
3:15 PM,53.6,17.6,24,30.15,-9999.0,SSE,17.9,-,N/A,,Clear,150,2013-03-05 14:15:00
3:45 PM,53.6,19.4,26,30.12,-9999.0,SSE,20.1,-,N/A,,Clear,150,2013-03-05 14:45:00
4:15 PM,51.8,19.4,28,30.12,-9999.0,SSE,15.7,-,N/A,,Clear,150,2013-03-05 15:15:00
4:45 PM,50.0,21.2,32,30.12,-9999.0,SSE,15.7,-,N/A,,Clear,150,2013-03-05 15:45:00
5:15 PM,48.2,21.2,34,30.12,-9999.0,SSE,11.2,-,N/A,,Clear,150,2013-03-05 16:15:00
5:45 PM,-9999,-9999,N/A,-9999,-9999.0,SSE,11.2,-,N/A,,Clear,150,2013-03-05 16:45:00
6:15 PM,46.4,23.0,40,30.09,-9999.0,SSE,11.2,-,N/A,,Clear,150,2013-03-05 17:15:00
6:45 PM,46.4,23.0,40,30.09,-9999.0,SSE,11.2,-,N/A,,Clear,150,2013-03-05 17:45:00
7:15 PM,46.4,23.0,40,30.09,-9999.0,SSE,15.7,-,N/A,,Clear,150,2013-03-05 18:15:00
7:45 PM,44.6,24.8,46,30.09,-9999.0,SSE,13.4,-,N/A,,Clear,150,2013-03-05 18:45:00
8:15 PM,46.4,23.0,40,30.09,-9999.0,SE,8.9,-,N/A,,Clear,140,2013-03-05 19:15:00
8:45 PM,-9999,-9999,N/A,-9999,-9999.0,SSE,11.2,-,N/A,,Clear,150,2013-03-05 19:45:00
9:15 PM,46.4,24.8,43,30.06,-9999.0,SSE,15.7,-,N/A,,Clear,160,2013-03-05 20:15:00
9:45 PM,44.6,24.8,46,30.09,-9999.0,SSE,15.7,-,N/A,,Clear,160,2013-03-05 20:45:00
10:15 PM,44.6,24.8,46,30.06,-9999.0,SSE,13.4,-,N/A,,Clear,150,2013-03-05 21:15:00
10:45 PM,44.6,24.8,46,30.06,-9999.0,SSE,13.4,-,N/A,,Clear,150,2013-03-05 21:45:00
11:15 PM,46.4,24.8,43,30.06,-9999.0,SSE,15.7,-,N/A,,Clear,160,2013-03-05 22:15:00
11:45 PM,46.4,26.6,46,30.06,-9999.0,SSE,15.7,-,N/A,,Clear,160,2013-03-05 22:45:00